Find Starlink 11400

NORAD ID: 63017 Int'l Des: 2025-032 Owner: SPXS Country: US Constellation: starlink operational
別名: STARLINK-11400 [DTC] celestrak
LEOCIRCULAR

現在のビュー

3D地球を読み込み中...

About Starlink 11400

Starlink 11400 (NORAD 63017) is a starlink constellation satellite (v2 mini d2c) launched Feb 15, 2025 by SPXS of US. It operates in LEO, CIRCULAR orbit with a mass of 960.00 kg.

次回通過

Passes for default location (London). Set your location on the main map for personalized predictions.

高度履歴

Loading altitude history...

軌道要素

1 63017U 25032N 26235.80201952 .00230690 00000-0 17430-2 0 9991
2 63017 43.0008 268.2728 0001513 281.1534 78.9163 15.70960997 88499
Epoch: Aug 23, 2026 • Age: 16 hours

現在のステータス

高度 356.1 km
遠地点 / 近地点 N/A
速度 7.70 km/s
衛星直下点 26.34°N, 86.78°W
打ち上げ日 Feb 15, 2025
運用期間 1.5 years
タイプ internet

技術仕様

分類 Payload
質量 960.00 kg
乾燥質量 910.00 kg
総質量 960.00 kg
長さ 0.30 m
直径 4.10 m
スパン 29.00 m
形状 Box + pan
製造者 SPXS
バスタイプ Starlink V2MD
フェーズステータス In Orbit
所有者/国 SPXS/US

Most Searched